Regional Weather Roundup
Issued by NWS

Home | Current Version | Previous Version | Graphics & Text | Print | Product List | Glossary On
Versions: 1 2 3 4 5 6 7 8 9 10 11 12 13 14 15 16 17 18 19 20 21 22 23 24 25 26 27 28 29 30 31 32 33 34 35 36 37 38 39 40 41 42 43 44 45 46 47 48 49 50
000
ASUS43 KTOP 162208
RWRKS

WEATHER ROUNDUP FOR KANSAS
NATIONAL WEATHER SERVICE GOODLAND KS
500 PM CDT TUE SEP 16 2014

NOTE:  "FAIR" INDICATES FEW OR NO CLOUDS BELOW 12,000 FEET WITH NO
SIGNIFICANT WEATHER AND/OR OBSTRUCTIONS TO VISIBILITY.

KSZ001>006-013>018-027>032-041>047-162300-
NORTHWEST KANSAS

CITY           SKY/WX    TMP DP  RH WIND       PRES   REMARKS
GOODLAND       SUNNY     85  53  33 S9        30.00F
HILL CITY      SUNNY     77  60  55 S15G21    30.00F
RUSSELL        SUNNY     76  60  57 S9        30.00F
$$

KSZ061>065-074>080-084>089-162300-
SOUTHWEST KANSAS

CITY           SKY/WX    TMP DP  RH WIND       PRES   REMARKS
DODGE CITY     SUNNY     83  60  45 SW18G24   30.02F
ELKHART          N/A     85  59  41 S14         N/A
GARDEN CITY    SUNNY     84  60  44 S16G24    30.00F
GREAT BEND     MOSUNNY   81  61  50 S18G24    30.00F
LIBERAL        SUNNY     88  61  40 SW15G21   30.04F
PRATT          SUNNY     81  59  47 S14       30.04F
$$

KSZ066>073-081>083-090>101-162300-
SOUTHEAST KANSAS

CITY           SKY/WX    TMP DP  RH WIND       PRES   REMARKS
CHANUTE        SUNNY     76  61  59 CALM      30.06F
COFFEYVILLE    SUNNY     75  64  68 E5        30.06F
HUTCHINSON     SUNNY     79  60  52 SE15      30.02F
MEDICINE LODGE   N/A     80  62  54 S7G17     30.02F
NEWTON         SUNNY     77  59  53 S8        30.06F
PARSONS        MOSUNNY   76  64  66 VRB3      30.07F
WICHITA INTL   SUNNY     80  61  52 SE10      30.03F
WICHITA JABRA  SUNNY     79  60  52 S7        30.03F
WICHITA MCCONL SUNNY     80  61  52 S8        30.03F
WINFIELD       SUNNY     77  65  66 S9        30.05F
$$

KSZ007>012-019>026-033>040-048>060-102>105-162300-
NORTHEAST KANSAS

CITY           SKY/WX    TMP DP  RH WIND       PRES   REMARKS
CONCORDIA      MOSUNNY   70  52  52 S10       30.03F
EMPORIA        SUNNY     75  55  49 SE8       30.05F
LAWRENCE       SUNNY     73  51  46 VRB6      30.06F
MANHATTAN      SUNNY     76  50  40 S7        30.03F
MARYSVILLE     CLOUDY    70  50  49 S9        30.04F
OLATHE IND     SUNNY     72  52  49 S6        30.08F
OLATHE EXE     SUNNY     70  53  54 S5        30.07F
SALINA         SUNNY     77  56  48 SE13G21   30.02F
TOPEKA BILLARD SUNNY     74  52  46 E6        30.06F
TOPEKA FORBES  SUNNY     74  51  44 SE7       30.06F
$$


USA.gov is the U.S. government's official web portal to all federal, state and local government web resources and services.